Weather History for Hyannis, MA

Change the Weather History Date:

Sunday, January 26, 2014

  Actual Average Record
Temperature  
Mean Temperature 24 °F -  
Max Temperature 28 °F 39 °F 56 °F (1950)
Min Temperature 19 °F 25 °F 1 °F (1963)
Degree Days  
Heating Degree Days 42    
Moisture  
Dew Point 9 °F    
Average Humidity 58    
Maximum Humidity 78    
Minimum Humidity 38    
Precipitation  
Precipitation 0.00 in - - ()
Sea Level Pressure  
Sea Level Pressure 29.73 in    
Wind  
Wind Speed 12 mph (West)    
Max Wind Speed 21 mph    
Max Gust Speed 34 mph    
Visibility 10 miles    
Events      
Averages and records for this station are not official NWS values.
T = Trace of Precipitation, MM = Missing Value Source: NWS Daily Summary

Daily Weather History Graph

Daily Weather History Graph

Search for Another Location

Airport:

Trip Planner

Search our weather history database for the weather conditions in past years. The results will help you decide how hot, cold, wet, or windy it might be!

Date:

Astronomy

Jan. 26, 2014 Rise Set
Actual Time 6:58 AM EST 4:49 PM EST
Civil Twilight 6:28 AM EST 5:19 PM EST
Nautical Twilight 5:55 AM EST 5:52 PM EST
Astronomical Twilight 5:22 AM EST 6:25 PM EST
Moon 2:32 AM EST 12:35 PM EST
Length of Visible Light 10h 50m
Length of Day
9h 50m
Waning Crescent, 24% of the Moon is Illuminated
Jan 26
Waning Crescent
Jan 30
New
Feb 6
First Quarter
Feb 14
Full
Feb 22
Last Quarter

Hourly Weather History & Observations

Time (EST) Temp. Windchill Dew Point Humidity Pressure Visibility Wind Dir Wind Speed Gust Speed Precip Events Conditions
12:56 AM 28.0 °F 17.5 °F 21.9 °F 78% 29.36 in 10.0 mi West 12.7 mph - N/A   Clear
1:56 AM 26.1 °F 15.0 °F 19.9 °F 78% 29.39 in 10.0 mi WSW 12.7 mph - N/A   Clear
2:56 AM 25.0 °F 13.6 °F 18.0 °F 75% 29.42 in 10.0 mi West 12.7 mph 24.2 mph N/A   Clear
3:56 AM 25.0 °F 14.2 °F 18.0 °F 75% 29.46 in 10.0 mi West 11.5 mph - N/A   Clear
4:56 AM 24.1 °F 13.7 °F 16.0 °F 71% 29.51 in 10.0 mi West 10.4 mph - N/A   Clear
5:56 AM 21.9 °F 10.4 °F 12.9 °F 68% 29.55 in 10.0 mi WNW 11.5 mph 24.2 mph N/A   Partly Cloudy
6:56 AM 19.9 °F 7.3 °F 5.0 °F 52% 29.62 in 10.0 mi WNW 12.7 mph 24.2 mph N/A   Partly Cloudy
7:56 AM 19.0 °F 7.5 °F 3.0 °F 50% 29.67 in 10.0 mi WNW 10.4 mph 23.0 mph N/A   Clear
8:56 AM 19.0 °F 6.1 °F -0.9 °F 42% 29.74 in 10.0 mi WNW 12.7 mph 23.0 mph N/A   Clear
9:56 AM 19.0 °F 3.6 °F -2.9 °F 38% 29.77 in 10.0 mi West 18.4 mph 25.3 mph N/A   Clear
10:56 AM 19.9 °F 3.9 °F 1.0 °F 44% 29.79 in 10.0 mi West 20.7 mph 27.6 mph N/A   Mostly Cloudy
11:56 AM 19.9 °F 3.9 °F 1.0 °F 44% 29.78 in 10.0 mi West 20.7 mph 34.5 mph N/A   Clear
12:56 PM 21.0 °F 5.4 °F -0.0 °F 40% 29.78 in 10.0 mi West 20.7 mph 27.6 mph N/A   Clear
1:56 PM 21.9 °F 9.8 °F 1.0 °F 40% 29.79 in 10.0 mi West 12.7 mph - N/A   Clear
2:56 PM 21.0 °F 7.6 °F 3.0 °F 46% 29.81 in 10.0 mi SW 15.0 mph - N/A   Clear
3:56 PM 21.9 °F 8.7 °F 3.9 °F 46% 29.84 in 10.0 mi WSW 15.0 mph - N/A   Mostly Cloudy
4:56 PM 21.9 °F 9.2 °F 9.0 °F 58% 29.86 in 10.0 mi WSW 13.8 mph - N/A   Overcast
5:56 PM 21.9 °F 11.0 °F 10.0 °F 60% 29.88 in 10.0 mi WSW 10.4 mph - N/A   Mostly Cloudy
6:56 PM 21.0 °F 12.4 °F 10.0 °F 63% 29.90 in 10.0 mi SW 6.9 mph - N/A   Partly Cloudy
7:56 PM 23.0 °F 10.6 °F 10.9 °F 60% 29.90 in 10.0 mi SW 13.8 mph - N/A   Mostly Cloudy
8:56 PM 21.9 °F - 10.0 °F 60% 29.91 in 10.0 mi Calm Calm - N/A   Clear
9:56 PM 19.9 °F - 12.9 °F 74% 29.92 in 10.0 mi Calm Calm - N/A   Overcast
10:56 PM 21.9 °F - 12.9 °F 68% 29.90 in 10.0 mi Calm Calm - N/A   Overcast
11:56 PM 25.0 °F 20.7 °F 17.1 °F 72% 29.88 in 10.0 mi SE 3.5 mph - N/A   Overcast